[[{"header":{"parameterUnit":"m.s-1","parameterCategory":1,"la1":30.2991,"la2":30.254,"lo1":-89.0895,"lo2":-89.0444,"dy":0.0017,"dx":0.0017,"nx":28,"ny":28,"refTime":"2024-05-31T09:00:00:Z","depth":0,"parameterNumber":2,"parameterNumberName":"U-component_of_WINDS"},"data":[0,0,0,0,0,0,0,0,0,0,0,0,0,0,0,0,0,0,0,0,0,0,0,0,0,0,0,0,0,0,0,0,0,0,0,0,0,0,0,0,0,0,0,0,0,0,0,0,0,0,0,0,0,0,0,0,0,0,-0.1722,-0.1721,0,-0.167,-0.167,-0.1669,-0.1644,-0.1644,-0.1644,-0.1644,-0.1591,-0.159,-0.1589,0,0,0,0,0,0,0,0,0,0,0,0,0,-0.18,-0.1799,-0.1722,-0.1721,-0.1721,-0.167,-0.167,-0.1669,-0.1644,-0.1644,-0.1644,-0.1644,-0.1592,-0.159,-0.1589,0,0,0,0,0,0,0,0,0,0,0,0,0,-0.1759,-0.1798,-0.1722,-0.1702,-0.17,-0.1671,-0.167,-0.1669,-0.1644,-0.1644,-0.1644,-0.1644,-0.1592,-0.159,-0.1588,-0.1575,0,0,-0.1582,-0.1581,0,0,0,0,0,0,0,0,-0.1762,-0.1756,-0.1706,-0.1703,-0.1701,-0.1663,-0.1678,-0.1638,-0.1644,-0.1665,-0.1644,-0.1644,-0.1615,-0.1611,-0.1602,-0.1573,-0.1571,-0.1582,-0.158,-0.158,-0.1579,0,0,0,0,0,0,0,-0.1764,-0.1758,-0.1702,-0.1705,-0.1702,-0.1696,-0.169,-0.167,-0.1641,-0.1663,-0.1661,-0.1655,-0.1614,-0.1604,-0.16,-0.157,-0.1582,-0.158,-0.1579,-0.1578,-0.1529,-0.1529,0,0,0,0,0,0,-0.177,-0.1761,-0.1703,-0.17,-0.1732,-0.1695,-0.1688,-0.1675,-0.1641,-0.1636,-0.1655,-0.1654,-0.1607,-0.1603,-0.1598,-0.1581,-0.158,-0.1578,-0.1576,-0.1529,-0.1529,-0.1529,0,0,0,0,0,0,-0.1772,-0.1765,-0.1705,-0.173,-0.1722,-0.1693,-0.1679,-0.1674,-0.1664,-0.1635,-0.163,-0.165,-0.1607,-0.1601,-0.1581,-0.1579,-0.1577,-0.1575,-0.1529,-0.1529,-0.1529,-0.1547,0,0,0,0,0,0,-0.1774,-0.1766,-0.1761,-0.173,-0.1721,-0.1689,-0.1679,-0.1673,-0.1661,-0.1659,-0.1629,-0.1624,-0.1607,-0.1585,-0.1579,-0.1576,-0.1573,-0.1529,-0.1529,-0.1529,-0.1547,-0.1548,-0.1549,0,0,0,0,0,-0.1777,-0.1768,-0.1761,-0.1754,-0.1713,-0.1689,-0.1684,-0.1664,-0.166,-0.1655,-0.1636,-0.1625,-0.1581,-0.1583,-0.1577,-0.1573,-0.1529,-0.1529,-0.1529,-0.1546,-0.1548,-0.1549,0,0,0,0,0,0,-0.1799,-0.1763,-0.1755,-0.1735,-0.1715,-0.1685,-0.1677,-0.1666,-0.1646,-0.1645,-0.1622,-0.1615,-0.1598,-0.1583,-0.1587,-0.1559,-0.1554,-0.1552,-0.1569,-0.157,-0.1571,-0.1575,-0.1571,0,0,0,0,0,-0.1802,-0.1785,-0.1755,-0.174,-0.1731,-0.1706,-0.1694,-0.1681,-0.1659,-0.1651,-0.1631,-0.1611,-0.1592,-0.158,-0.1562,-0.1545,-0.1538,-0.1539,-0.154,-0.1541,-0.154,-0.1531,-0.1531,-0.1529,-0.1529,-0.1529,0,0,-0.1806,-0.1785,-0.1776,-0.1744,-0.1727,-0.171,-0.1699,-0.1681,-0.1669,-0.1648,-0.1628,-0.1613,-0.1589,-0.1571,-0.1562,-0.1558,-0.154,-0.1541,-0.1542,-0.1541,-0.1531,-0.1531,-0.1531,-0.1528,-0.1528,-0.1528,0,0,-0.1807,-0.1789,-0.1775,-0.1758,-0.1733,-0.1716,-0.1713,-0.1684,-0.1673,-0.1653,-0.1637,-0.1623,-0.1591,-0.1575,-0.1562,-0.1558,-0.1547,-0.1552,-0.1558,-0.1549,-0.1549,-0.1549,-0.1548,-0.1548,-0.1552,-0.1552,-0.1552,0,-0.1816,-0.179,-0.1769,-0.1753,-0.174,-0.1721,-0.1707,-0.1692,-0.1662,-0.1653,-0.165,-0.161,-0.1593,-0.157,-0.157,-0.156,-0.1556,-0.1556,-0.1551,-0.1551,-0.155,-0.1549,-0.1548,-0.1553,-0.1552,-0.1552,-0.1552,0,-0.1803,-0.1786,-0.1778,-0.1749,-0.1735,-0.172,-0.1697,-0.1686,-0.1674,-0.1658,-0.1638,-0.1616,-0.1593,-0.1587,-0.1575,-0.1564,-0.1562,-0.1555,-0.1549,-0.1552,-0.155,-0.1549,-0.1554,-0.1554,-0.1553,-0.1553,0,0,-0.1815,-0.1776,-0.1773,-0.176,-0.1731,-0.1717,-0.1702,-0.1679,-0.167,-0.165,-0.1637,-0.1611,-0.1605,-0.1591,-0.1577,-0.1569,-0.1567,-0.1563,-0.1562,-0.1565,-0.1554,-0.1559,-0.1559,-0.156,-0.156,-0.156,-0.1556,0,-0.1812,-0.1783,-0.1764,-0.1743,-0.1727,-0.1709,-0.1695,-0.1676,-0.1661,-0.1646,-0.1629,-0.1612,-0.1604,-0.1596,-0.1587,-0.1569,-0.1565,-0.157,-0.1548,-0.1547,-0.1554,-0.1558,-0.1564,-0.1561,-0.1555,-0.1555,-0.1555,0,-0.1803,-0.1784,-0.1761,-0.1735,-0.1727,-0.1716,-0.1694,-0.1679,-0.1657,-0.1647,-0.1632,-0.1618,-0.1602,-0.1598,-0.1575,-0.1579,-0.1569,-0.1559,-0.1558,-0.1555,-0.1551,-0.1555,-0.156,-0.1559,-0.1553,-0.1554,-0.1554,0,-0.1815,-0.1783,-0.1765,-0.1755,-0.1723,-0.1716,-0.1702,-0.1681,-0.1669,-0.165,-0.1642,-0.1621,-0.161,-0.1595,-0.1576,-0.1575,-0.1556,-0.155,-0.1547,-0.1548,-0.1544,-0.1544,-0.1547,-0.1537,-0.1537,-0.1537,-0.1537,0,-0.1813,-0.1799,-0.177,-0.1759,-0.1744,-0.1723,-0.1709,-0.1694,-0.1676,-0.1662,-0.1645,-0.1633,-0.1609,-0.1594,-0.1579,-0.1563,-0.1558,-0.155,-0.1546,-0.1551,-0.1552,-0.1544,-0.1544,-0.1537,-0.1537,-0.1537,-0.1537,0,-0.1822,-0.1802,-0.1782,-0.1754,-0.1747,-0.1737,-0.1713,-0.1702,-0.1687,-0.167,-0.1665,-0.1641,-0.1622,-0.1602,-0.1577,-0.1567,-0.1551,-0.1546,-0.1559,-0.1557,-0.1555,-0.1556,-0.1552,-0.1551,-0.1543,-0.1543,-0.1543,0,-0.1822,-0.1812,-0.1783,-0.1772,-0.1759,-0.1743,-0.1731,-0.171,-0.1698,-0.1673,-0.1666,-0.1646,-0.1629,-0.16,-0.1581,-0.1561,-0.1555,-0.1556,-0.1552,-0.1558,-0.1556,-0.1556,-0.1555,-0.1557,-0.1557,-0.1557,-0.1557,0,-0.1824,-0.1815,-0.1798,-0.1777,-0.1763,-0.1746,-0.1729,-0.1721,-0.1697,-0.1685,-0.1665,-0.1652,-0.1627,-0.1608,-0.1586,-0.1573,-0.1561,-0.1558,-0.1557,-0.1562,-0.157,-0.1566,-0.1562,-0.1558,-0.1558,-0.1558,-0.1558,-0.1558,-0.1829,-0.1819,-0.1797,-0.1779,-0.1764,-0.1748,-0.1737,-0.172,-0.1704,-0.1681,-0.167,-0.1651,-0.1631,-0.1601,-0.1588,-0.1573,-0.1569,-0.1567,-0.1566,-0.1566,-0.1567,-0.1572,-0.1569,-0.1569,-0.1569,-0.1569,-0.1569,0,-0.183,-0.1816,-0.1799,-0.1775,-0.1761,-0.1751,-0.1732,-0.1721,-0.1704,-0.1686,-0.167,-0.1648,-0.163,-0.1609,-0.1589,-0.1582,-0.1576,-0.1577,-0.1578,-0.1575,-0.1572,-0.1575,-0.1582,-0.1582,-0.1582,-0.1582,-0.1582,-0.1582,-0.1829,-0.1812,-0.1801,-0.1776,-0.1762,-0.1743,-0.1733,-0.1718,-0.1704,-0.168,-0.1665,-0.1652,-0.1633,-0.1612,-0.1595,-0.1589,-0.1583,-0.1586,-0.1579,-0.1576,-0.1575,-0.1574,-0.1577,-0.1584,-0.1584,-0.1583,-0.1583,-0.1583]},{"header":{"parameterUnit":"m.s-1","parameterCategory":1,"la1":30.2991,"la2":30.254,"lo1":-89.0895,"lo2":-89.0444,"dy":0.0017,"dx":0.0017,"nx":28,"ny":28,"refTime":"2024-05-31T09:00:00:Z","depth":0,"parameterNumber":3,"parameterNumberName":"V-component_of_WINDS"},"data":[0,0,0,0,0,0,0,0,0,0,0,0,0,0,0,0,0,0,0,0,0,0,0,0,0,0,0,0,0,0,0,0,0,0,0,0,0,0,0,0,0,0,0,0,0,0,0,0,0,0,0,0,0,0,0,0,0,0,5.4912,5.4915,0,5.5159,5.5162,5.5164,5.516,5.5157,5.5153,5.515,5.5397,5.5407,5.5416,0,0,0,0,0,0,0,0,0,0,0,0,0,5.4429,5.4437,5.4912,5.4915,5.4918,5.5158,5.5162,5.5165,5.5161,5.5157,5.5153,5.5149,5.5394,5.5405,5.5417,0,0,0,0,0,0,0,0,0,0,0,0,0,5.4653,5.444,5.4912,5.4945,5.4951,5.5158,5.5162,5.5166,5.5161,5.5156,5.5151,5.5147,5.539,5.5404,5.5419,5.5607,0,0,5.5463,5.5469,0,0,0,0,0,0,0,0,5.464,5.4671,5.4937,5.4943,5.495,5.5124,5.5082,5.5314,5.5163,5.5081,5.515,5.5144,5.531,5.5331,5.5388,5.5619,5.5629,5.5464,5.5473,5.5479,5.5483,0,0,0,0,0,0,0,5.4625,5.466,5.5009,5.4941,5.4949,5.4945,5.4971,5.5126,5.522,5.5088,5.5088,5.5118,5.5312,5.5374,5.5393,5.5633,5.5464,5.5477,5.5486,5.5491,5.6025,5.603,0,0,0,0,0,0,5.4603,5.4647,5.5002,5.5017,5.478,5.4958,5.4987,5.5073,5.5218,5.5236,5.5122,5.5117,5.5351,5.5376,5.5402,5.5629,5.5479,5.5493,5.5501,5.6019,5.6026,5.6032,0,0,0,0,0,0,5.4593,5.4635,5.4992,5.4832,5.4877,5.4971,5.5067,5.508,5.5142,5.5244,5.526,5.5168,5.5348,5.5382,5.5555,5.5637,5.5499,5.5512,5.6013,5.6021,5.6029,5.6085,0,0,0,0,0,0,5.4579,5.4631,5.4706,5.4834,5.4886,5.5144,5.5073,5.5089,5.5167,5.5163,5.5291,5.5308,5.5347,5.5534,5.557,5.5655,5.5524,5.6006,5.6016,5.6026,5.6077,5.6094,5.611,0,0,0,0,0,5.4562,5.4712,5.471,5.4753,5.4982,5.5149,5.5178,5.5222,5.5174,5.5248,5.5313,5.5304,5.5623,5.5551,5.5592,5.5682,5.6001,5.6013,5.6025,5.6069,5.6091,5.6109,0,0,0,0,0,0,5.4591,5.473,5.4729,5.4926,5.5026,5.5148,5.5243,5.5244,5.5358,5.5349,5.5397,5.5426,5.5598,5.5658,5.5576,5.5869,5.5805,5.5826,5.5824,5.5846,5.5862,5.5844,5.5536,0,0,0,0,0,5.4621,5.4747,5.486,5.5023,5.5073,5.5149,5.5223,5.5248,5.5353,5.5394,5.5472,5.5572,5.5694,5.5773,5.5892,5.6085,5.611,5.6167,5.6183,5.6196,5.6214,5.6315,5.634,5.6072,5.6072,5.6072,0,0,5.4683,5.4774,5.4851,5.5031,5.5111,5.5237,5.5185,5.5322,5.5414,5.5415,5.5583,5.5643,5.5757,5.594,5.6024,5.5995,5.6293,5.6212,5.6222,5.6232,5.633,5.6356,5.6378,5.6081,5.6079,5.6078,0,0,5.486,5.4943,5.5086,5.5167,5.5288,5.5338,5.5371,5.5493,5.5533,5.5703,5.5704,5.5814,5.6025,5.6104,5.6173,5.6375,5.6368,5.6412,5.6498,5.6597,5.6618,5.6637,5.6705,5.673,5.6429,5.6429,5.6429,0,5.4921,5.5114,5.5159,5.5295,5.5372,5.5378,5.552,5.5596,5.575,5.5801,5.5766,5.6028,5.6105,5.6305,5.6353,5.641,5.6447,5.6397,5.6612,5.6631,5.6649,5.6715,5.6741,5.6433,5.6432,5.6432,5.6432,0,5.5181,5.5314,5.5414,5.5562,5.5651,5.579,5.5852,5.5935,5.5951,5.6002,5.6172,5.6265,5.64,5.6449,5.6467,5.665,5.6627,5.6602,5.6538,5.6678,5.674,5.6766,5.6439,5.6437,5.6436,5.6435,0,0,5.5386,5.5554,5.559,5.5655,5.5788,5.589,5.6027,5.616,5.6229,5.6333,5.6446,5.6623,5.6598,5.6675,5.6701,5.6788,5.6937,5.6751,5.6754,5.6779,5.714,5.7157,5.7186,5.6934,5.6939,5.6943,5.7129,0,5.5574,5.582,5.5862,5.6075,5.6195,5.6201,5.6319,5.6411,5.6462,5.6569,5.6624,5.6747,5.6707,5.6753,5.6839,5.69,5.7009,5.6888,5.7036,5.7041,5.7006,5.7219,5.7239,5.741,5.7154,5.7158,5.7161,0,5.5829,5.5939,5.6165,5.6277,5.6329,5.6435,5.6557,5.6662,5.6764,5.6794,5.6879,5.6893,5.703,5.6961,5.7149,5.7065,5.7128,5.7166,5.7174,5.7188,5.7109,5.7236,5.7467,5.7491,5.7201,5.7198,5.7195,0,5.5951,5.6156,5.6317,5.6373,5.6509,5.6582,5.6642,5.674,5.6815,5.6922,5.697,5.7091,5.7157,5.7248,5.7292,5.7238,5.7476,5.7411,5.7502,5.7501,5.7551,5.7547,5.7792,5.7595,5.7595,5.7594,5.7594,0,5.6157,5.6293,5.6373,5.6471,5.6623,5.6668,5.6816,5.6873,5.6959,5.7066,5.7078,5.7177,5.7231,5.7337,5.7373,5.7521,5.7551,5.7577,5.7584,5.7575,5.7571,5.7615,5.7604,5.7601,5.76,5.7598,5.7597,0,5.6319,5.6379,5.6553,5.6666,5.6698,5.6804,5.6899,5.6993,5.7042,5.7176,5.721,5.7287,5.7412,5.7466,5.762,5.7643,5.7812,5.7812,5.7778,5.778,5.7866,5.7856,5.8147,5.8186,5.7965,5.7967,5.7969,0,5.6446,5.6551,5.6675,5.6748,5.6809,5.6927,5.7004,5.705,5.7129,5.7251,5.7329,5.7455,5.7557,5.7756,5.7824,5.794,5.7941,5.8035,5.7959,5.7945,5.7939,5.7932,5.794,5.8048,5.8051,5.8052,5.8054,0,5.6663,5.6686,5.6797,5.6918,5.7009,5.7106,5.7201,5.7259,5.7319,5.7407,5.7535,5.7615,5.7771,5.7894,5.8014,5.8072,5.8072,5.8077,5.8104,5.8095,5.8069,5.8081,5.7813,5.807,5.8069,5.8067,5.8067,5.8066,5.681,5.6902,5.7002,5.7124,5.72,5.7287,5.7379,5.7439,5.7547,5.7679,5.7699,5.7835,5.793,5.8091,5.8153,5.8258,5.8234,5.8274,5.8283,5.8292,5.8296,5.8054,5.828,5.828,5.8279,5.8279,5.8279,0,5.7025,5.7089,5.7201,5.7332,5.7427,5.742,5.7523,5.7602,5.7722,5.7811,5.7911,5.8056,5.8174,5.825,5.8368,5.8437,5.844,5.8466,5.8461,5.8473,5.8312,5.8276,5.8462,5.8462,5.8462,5.8462,5.8462,5.8462,5.7148,5.7302,5.7336,5.7525,5.7588,5.7722,5.7781,5.7859,5.793,5.8092,5.8191,5.8239,5.8322,5.8445,5.8552,5.8571,5.8612,5.864,5.8657,5.8504,5.8485,5.8467,5.8433,5.865,5.865,5.881,5.8811,5.8812]}]]